Location: Newark
(40.3500°N, 15.2333°E)
Time: 01:11:25
(UTC+00:00)

Altair - Pass Details

Date: 18 January 2020
Orbit: 1502 x 1682 km, 47.2° (Epoch: 19 February)

Event Time Altitude Azimuth Distance (km) Brightness Sun altitude
Rises 17:00:03 0° 296° (WNW) 4,894 10.9 -11.4°
Reaches altitude 10° 17:03:39 10° 288° (WNW) 3,882 10.5 -12.1°
Maximum altitude 17:11:59 32° 230° (SW) 2,480 9.3 -13.6°
Drops below altitude 10° 17:20:03 10° 171° (S) 3,746 9.6 -15.1°
Sets 17:23:29 0° 162° (SSE) 4,701 10.0 -15.7°
